Location: B?lite?ti
(46.2833°N, 22.7333°E)
Time: 03:21:55
(UTC+00:00)

X-37B - Pass Details

Date: 24 January 2021
Orbit: 383 x 391 km, 45.0° (Epoch: 10 February)

Event Time Altitude Azimuth Distance (km) Brightness Sun altitude
Rises 16:51:03 0° 261° (W) 2,271 6.4 -15.3°
Reaches altitude 10° 16:53:07 10° 259° (W) 1,418 4.8 -15.6°
Maximum altitude 16:56:18 69° 176° (S) 419 0.7 -16.2°
Enters shadow 16:57:11 43° 106° (ESE) 562 0.9 -16.3°
